Weather History for Del Bajio, Mexico

Change the Weather History Date:

Friday, February 21, 2014

  Actual Average Record
Temperature  
Mean Temperature 67 °F -  
Max Temperature 84 °F 78 °F 87 °F (2006)
Min Temperature 50 °F 45 °F 41 °F (1997)
Cooling Degree Days 2    
Growing Degree Days 17 (Base 50)    
Moisture  
Dew Point 39 °F    
Average Humidity 39    
Maximum Humidity 62    
Minimum Humidity 20    
Precipitation  
Precipitation 0.00 in - - ()
Sea Level Pressure  
Sea Level Pressure 30.05 in    
Wind  
Wind Speed 4 mph ()    
Max Wind Speed 12 mph    
Max Gust Speed -    
Visibility 7.7 miles    
Events      
Averages and records for this station are not official NWS values.
T = Trace of Precipitation, MM = Missing Value Source: Averaged Metar Reports

Daily Weather History Graph

Daily Weather History Graph

Search for Another Location

Airport:

Trip Planner

Search our weather history database for the weather conditions in past years. The results will help you decide how hot, cold, wet, or windy it might be!

Date:

Astronomy

Feb. 21, 2014 Rise Set
Actual Time 7:12 AM CST 6:47 PM CST
Civil Twilight 6:49 AM CST 7:09 PM CST
Nautical Twilight 6:23 AM CST 7:35 PM CST
Astronomical Twilight 5:57 AM CST 8:01 PM CST
Moon No Moon Rise 11:28 AM CST (2/21)
Length of Visible Light 12h 19m
Length of Day
11h 34m
Waning Gibbous, 60% of the Moon is Illuminated
Feb 21
Waning Gibbous
Feb 22
Last Quarter
Mar 1
New
Mar 8
First Quarter
Mar 16
Full

Hourly Weather History & Observations

Time (CST) Temp. Dew Point Humidity Pressure Visibility Wind Dir Wind Speed Gust Speed Precip Events Conditions
12:43 AM 57.2 °F 30.2 °F 36% 30.21 in 8.0 mi Calm Calm - N/A   Mostly Cloudy
2:43 AM 53.6 °F 30.2 °F 41% 29.78 in 8.0 mi NE 6.9 mph - N/A   Mostly Cloudy
3:45 AM 50.0 °F 30.2 °F 47% 30.18 in 8.0 mi East 5.8 mph - N/A   Mostly Cloudy
4:43 AM 51.8 °F 32.0 °F 47% 30.18 in 8.0 mi Calm Calm - N/A   Mostly Cloudy
5:44 AM 51.8 °F 35.6 °F 54% 29.80 in 8.0 mi East 3.5 mph - N/A   Mostly Cloudy
6:44 AM 51.8 °F 35.6 °F 54% 30.21 in 8.0 mi ESE 4.6 mph - N/A   Mostly Cloudy
7:42 AM 51.8 °F 39.2 °F 62% 30.24 in 8.0 mi Calm Calm - N/A   Mostly Cloudy
8:44 AM 62.6 °F 46.4 °F 55% 29.94 in 6.0 mi Calm Calm - N/A   Mostly Cloudy
9:43 AM 69.8 °F 46.4 °F 43% 30.27 in 6.0 mi Calm Calm - N/A   Scattered Clouds
10:48 AM 75.2 °F 44.6 °F 34% 30.24 in 7.0 mi SE 6.9 mph - N/A   Scattered Clouds
11:41 AM 77.0 °F 42.8 °F 29% 29.86 in 8.0 mi SSE 11.5 mph - N/A   Mostly Cloudy
12:46 PM 78.8 °F 42.8 °F 28% 30.21 in 8.0 mi SE 10.4 mph - N/A   Mostly Cloudy
1:40 PM 80.6 °F 41.0 °F 24% 30.15 in 9.0 mi SSE 9.2 mph - N/A   Mostly Cloudy
2:43 PM 84.2 °F 39.2 °F 20% 29.74 in 9.0 mi SE 11.5 mph - N/A   Mostly Cloudy
4:52 PM 78.8 °F 39.2 °F 24% 30.09 in 9.0 mi South 9.2 mph - N/A   Mostly Cloudy
5:41 PM 78.8 °F 37.4 °F 23% 29.76 in 9.0 mi WSW 8.1 mph - N/A   Mostly Cloudy
6:48 PM 71.6 °F 39.2 °F 31% 30.12 in 9.0 mi WSW 4.6 mph - N/A   Mostly Cloudy
7:45 PM 69.8 °F 39.2 °F 33% 30.12 in 8.0 mi Calm Calm - N/A   Mostly Cloudy
8:43 PM 64.4 °F 39.2 °F 40% 29.83 in 8.0 mi Calm Calm - N/A   Scattered Clouds
9:50 PM 62.6 °F 39.2 °F 42% 30.16 in 6.0 mi NNE 6.9 mph - N/A   Scattered Clouds
10:49 PM 62.6 °F 39.2 °F 42% 30.17 in 6.0 mi NNE 6.9 mph - N/A   Mostly Cloudy
11:50 PM 57.2 °F 41.0 °F 55% 29.79 in 6.0 mi Calm Calm - N/A   Mostly Cloudy